Location: Songkhla
(7.2000°N, 100.6000°E)
Time: 15:15:00
(UTC+07:00)

SL-8 DEB - All Passes

Search period start: 14 April 2024 00:00
Search period end: 24 April 2024 00:00
Orbit: 1414 x 1696 km, 73.9° (Epoch: 02 June)

Date Brightness Start Highest point End Pass type
(mag) Time Alt. Az. Time Alt. Az. Time Alt. Az.
14 Apr - 08:08:52 10° N 08:17:07 55° ENE 08:25:16 10° SSE daylight
14 Apr - 10:11:15 10° WNW 10:16:11 17° W 10:21:08 10° SW daylight
14 Apr - 19:02:15 10° ESE 19:05:38 12° E 19:08:59 10° ENE visible
14 Apr - 20:54:48 10° SSW 21:04:43 83° WNW 21:14:33 10° N visible
15 Apr - 07:36:01 10° NNE 07:43:33 35° ENE 07:50:59 10° SE daylight
15 Apr - 09:35:51 10° NW 09:42:43 28° W 09:49:37 10° SSW daylight
15 Apr - 20:21:25 10° S 20:31:14 70° E 20:40:57 10° NNE visible
15 Apr - 22:25:07 10° WSW 22:30:48 17° WNW 22:36:29 10° NW visible
16 Apr - 07:03:47 10° NNE 07:09:55 22° ENE 07:15:59 10° ESE daylight
16 Apr - 09:01:22 10° NNW 09:09:15 44° W 09:17:10 10° S daylight
16 Apr - 19:48:26 10° S 19:57:46 47° E 20:06:59 10° NNE visible
16 Apr - 21:49:18 10° SW 21:57:09 27° WNW 22:04:57 10° NNW visible
17 Apr - 06:33:01 10° NE 06:36:13 12° ENE 06:39:25 10° E daylight
17 Apr - 08:27:23 10° NNW 08:35:46 69° W 08:44:10 10° S daylight
17 Apr - 19:15:58 10° SSE 19:24:19 31° E 19:32:31 10° NE visible
17 Apr - 21:14:31 10° SW 21:23:34 41° WNW 21:32:32 10° N visible
18 Apr - 07:53:49 10° N 08:02:17 79° ENE 08:10:44 10° SSE daylight
18 Apr - 18:44:18 10° SE 18:50:52 20° E 18:57:20 10° ENE visible
18 Apr - 20:40:19 10° SSW 20:50:01 61° WNW 20:59:36 10° N visible
19 Apr - 07:20:36 10° N 07:28:44 52° ENE 07:36:52 10° SSE daylight
19 Apr - 09:22:35 10° WNW 09:27:50 18° W 09:33:08 10° SW daylight
19 Apr - 18:14:56 10° ESE 18:17:24 11° E 18:19:51 10° E daylight
19 Apr - 20:06:34 10° SSW 20:16:31 87° WNW 20:26:17 10° N visible
20 Apr - 06:47:49 10° NNE 06:55:10 33° ENE 07:02:29 10° SE daylight
20 Apr - 08:47:21 10° NW 08:54:22 30° W 09:01:27 10° SSW daylight
20 Apr - 19:33:14 10° S 19:43:02 66° E 19:52:39 10° NNE visible
20 Apr - 21:36:32 10° WSW 21:42:33 18° WNW 21:48:32 10° NW visible
21 Apr - 06:15:42 10° NNE 06:21:32 20° ENE 06:27:21 10° ESE daylight
21 Apr - 08:12:56 10° NNW 08:20:54 47° W 08:28:56 10° S daylight
21 Apr - 19:00:19 10° S 19:09:34 45° E 19:18:37 10° NNE visible
21 Apr - 21:00:54 10° SW 21:08:54 28° WNW 21:16:51 10° NNW visible
22 Apr - 05:45:25 10° NE 05:47:51 11° ENE 05:50:16 10° E visible
22 Apr - 07:39:01 10° NNW 07:47:25 73° WSW 07:55:52 10° S daylight
22 Apr - 18:27:56 10° SSE 18:36:06 30° E 18:44:06 10° NE visible
22 Apr - 20:26:11 10° SW 20:35:20 43° WNW 20:44:21 10° N visible
23 Apr - 07:05:29 10° N 07:13:55 75° ENE 07:22:23 10° SSE daylight
23 Apr - 09:11:34 10° W 09:12:58 10° W 09:14:23 10° WSW daylight
23 Apr - 17:56:25 10° SE 18:02:38 19° E 18:08:45 10° ENE daylight
23 Apr - 19:52:03 10° SSW 20:01:49 63° WNW 20:11:22 10° N visible
